1338854432673,0.934115
1338854492673,0.936117
1338854552673,0.930621
1338854612673,0.935365
1338854672673,0.940232
1338854732673,0.939223
1338854792673,0.934014
1338854852673,0.937570
1338854912673,0.940136
1338854972673,0.933008
1338855032673,0.934255
1338855092673,0.942952
1338855152673,0.932388
1338855212673,0.940304
1338855272673,0.949466
1338855332673,0.943103
1338855392673,0.942059
1338855452673,0.942100
1338855512673,0.940344
1338855572673,0.931167
1338855632673,0.939949
1338855692673,0.940901
1338855752673,0.935662
1338855812673,0.931971
1338855872673,0.934394
1338855932673,0.935244
1338855992673,0.937931
1338856052673,0.938304
1338856112673,0.927771
1338856172673,0.936246
1338856232673,0.929130
1338856292673,0.932663
1338856352673,0.928482
1338856412673,0.934158
1338856472673,0.932611
1338856532673,0.931018
1338856592673,0.933231
1338856652673,0.930785
1338856712673,0.939157
1338856772673,0.933881
1338856832673,0.941273
1338856892673,0.938569
1338856952673,0.945105
1338857012673,0.936361
1338857072673,0.936054
1338857132673,0.938889
1338857192673,0.936764
1338857252673,0.936267
1338857312673,0.932149
1338857372673,0.937804
1338857432673,0.939048
1338857492673,0.929350
1338857552673,0.929561
1338857612673,0.934779
1338857672673,0.931172
1338857732673,0.939690
1338857792673,0.938020
1338857852673,0.935100
1338857912673,0.940256
1338857972673,0.933703
1338858032684,0.936380
1338858092684,0.933201
1338858152684,0.934485
1338858212684,0.937872
1338858272684,0.938291
1338858332684,0.939159
1338858392684,0.937867
1338858452684,0.937734
1338858512684,0.939485
1338858572684,0.933889
1338858632684,0.928094
1338858692684,0.930137
1338858752684,0.931611
1338858812684,0.933792
1338858872684,0.928479
1338858932684,0.936649
1338858992684,0.937063
1338859052684,0.934711
1338859112684,0.934338
1338859172684,0.931959
1338859232684,0.933494
1338859292684,0.943185
1338859352684,0.933189
1338859412684,0.936080
1338859472684,0.935076
1338859532684,0.942777
1338859592684,0.933639
1338859652684,0.931417
1338859712684,0.936588
1338859772684,0.936026
1338859832684,0.936184
1338859892684,0.928641
1338859952684,0.935581
1338860012684,0.930206
1338860072684,0.923741
1338860132684,0.932969
1338860192684,0.943118
1338860252684,0.934451
1338860312684,0.939413
1338860372684,0.936751
1338860432684,0.930159
1338860492684,0.934851
1338860552684,0.935480
1338860612684,0.930578
1338860672684,0.929597
1338860732684,0.930245
1338860792684,0.926262
1338860852684,0.922579
1338860912684,0.926517
1338860972684,0.931630
1338861032684,0.925807
1338861092684,0.925787
1338861152684,0.922136
1338861212684,0.937916
1338861272684,0.935914
1338861332684,0.934374
1338861392684,0.935984
1338861452684,0.936670
1338861512684,0.931625
1338861572684,0.930139
1338861632694,0.931432
1338861692694,0.921577
1338861752694,0.931275
1338861812694,0.921399
1338861872695,0.920542
1338861932695,0.924697
1338861992695,0.931983
1338862052695,0.934345
1338862112694,0.940776
1338862172694,0.938362
1338862232694,0.943510
1338862292694,0.943292
1338862352694,0.938206
1338862412694,0.953278
1338862472694,0.943001
1338862532694,0.947108
1338862592694,0.933457
1338862652694,0.947659
1338862712694,0.950185
1338862772694,0.939216
1338862832694,0.952184
1338862892694,0.950919
1338862952694,0.949927
1338863012694,0.943320
1338863072694,0.954604
1338863132694,0.949758
1338863192694,0.945872
1338863252695,0.949781
1338863312695,0.942678
1338863372695,0.942848
1338863432695,0.952641
1338863492694,0.945035
1338863552694,0.946672
1338863612694,0.942424
1338863672694,0.949133
1338863732694,0.945443
1338863792694,0.949666
1338863852694,0.938149
1338863912694,0.944715
1338863972694,0.952519
1338864032694,0.944441
1338864092694,0.948480
1338864152694,0.943075
1338864212694,0.944046
1338864272694,0.945187
1338864332694,0.944553
1338864392694,0.947516
1338864452694,0.954350
1338864512694,0.961713
1338864572695,0.960692
1338864632695,0.954711
1338864692695,0.953037
1338864752695,0.952212
1338864812694,0.953080
1338864872694,0.958294
1338864932694,0.960996
1338864992694,0.945926
1338865052694,0.943237
1338865112694,0.937000
1338865172694,0.947819
1338865232705,0.956703
1338865292705,0.948505
1338865352705,0.945436
1338865412705,0.953376
1338865472705,0.955373
1338865532705,0.942011
1338865592705,0.947255
1338865652705,0.948799
1338865712705,0.945908
1338865772705,0.947644
1338865832705,0.940089
1338865892705,0.950597
1338865952705,0.950207
1338866012705,0.937584
1338866072705,0.939855
1338866132705,0.950297
1338866192705,0.949197
1338866252705,0.945466
1338866312705,0.938436
1338866372705,0.936680
1338866432705,0.941466
1338866492705,0.933843
1338866552705,0.936455
1338866612705,0.935692
1338866672705,0.936024
1338866732705,0.939057
1338866792705,0.945320
1338866852705,0.936566
1338866912705,0.943554
1338866972705,0.939919
1338867032705,0.942786
1338867092705,0.932560
1338867152705,0.935699
1338867212705,0.936420
1338867272705,0.943104
1338867332705,0.933670
1338867392705,0.943048
1338867452705,0.939190
1338867512705,0.941106
1338867572705,0.937136
1338867632705,0.943027
1338867692705,0.935654
1338867752705,0.937071
1338867812705,0.939526
1338867872705,0.939005
1338867932705,0.935082
1338867992705,0.935398
1338868052705,0.938062
1338868112705,0.928942
1338868172705,0.937815
1338868232705,0.933474
1338868292705,0.936586
1338868352705,0.933439
1338868412705,0.929962
1338868472705,0.938944
1338868532705,0.940078
1338868592705,0.936985
1338868652705,0.936507
1338868712705,0.939171
1338868772705,0.935060
1338868832714,0.934468
1338868892714,0.928332
1338868952714,0.937528
1338869012714,0.931212
1338869072714,0.939803
1338869132714,0.934466
1338869192714,0.937876
1338869252715,0.938004
1338869312715,0.940066
1338869372715,0.933359
1338869432715,0.939540
1338869492714,0.933358
1338869552714,0.933847
1338869612714,0.936811
1338869672714,0.933767
1338869732714,0.932817
1338869792714,0.932708
1338869852714,0.933281
1338869912714,0.934082
1338869972714,0.936785
1338870032714,0.938759
1338870092714,0.946749
1338870152714,0.938548
1338870212714,0.942906
1338870272714,0.945763
1338870332714,0.954152
1338870392714,0.954641
1338870452714,0.953323
1338870512714,0.952184
1338870572715,0.961456
1338870632715,0.963755
1338870692715,0.967210
1338870752715,0.957482
1338870812715,0.957938
1338870872714,0.956253
1338870932714,0.954322
1338870992714,0.955331
1338871052714,0.956579
1338871112714,0.950987
1338871172714,0.947922
1338871232714,0.944576
1338871292714,0.948231
1338871352714,0.945017
1338871412714,0.946497
1338871472714,0.938452
1338871532714,0.949741
1338871592714,0.948393
1338871652714,0.943683
1338871712714,0.939374
1338871772714,0.936753
1338871832714,0.934171
1338871892714,0.936487
1338871952715,0.939280
1338872012715,0.934862
1338872072715,0.939427
1338872132715,0.943598
1338872192714,0.934202
1338872252714,0.938710
1338872312714,0.935222
1338872372714,0.931959
1338872432724,0.936844
1338872492724,0.933632
1338872552724,0.931594
1338872612724,0.934344
1338872672724,0.933658
1338872732724,0.931857
1338872792724,0.930092
1338872852724,0.928825
1338872912724,0.929386
1338872972724,0.928885
1338873032724,0.932475
1338873092724,0.930540
1338873152724,0.929150
1338873212724,0.925644
1338873272724,0.919494
1338873332724,0.932399
1338873392724,0.929595
1338873452724,0.929732
1338873512724,0.921933
1338873572724,0.935140
1338873632724,0.935830
1338873692724,0.931442
1338873752724,0.925369
1338873812724,0.931580
1338873872724,0.933552
1338873932724,0.925285
1338873992724,0.924069
1338874052724,0.924364
1338874112724,0.931342
1338874172724,0.934828
1338874232724,0.936483
1338874292724,0.934437
1338874352724,0.934947
1338874412724,0.934347
1338874472724,0.952743
1338874532724,0.945154
1338874592724,0.929682
1338874652724,0.935878
1338874712724,0.937370
1338874772724,0.931626
1338874832724,0.942292
1338874892724,0.925044
1338874952724,0.930012
1338875012724,0.926915
1338875072724,0.934764
1338875132724,0.935132
1338875192724,0.937783
1338875252724,0.927741
1338875312724,0.926647
1338875372724,0.922719
1338875432724,0.927107
1338875492724,0.926421
1338875552724,0.931233
1338875612724,0.936483
1338875672724,0.937132
1338875732724,0.935834
1338875792724,0.937246
1338875852724,0.941091
1338875912724,0.935968
1338875972724,0.931674
1338876032734,0.927472
1338876092734,0.941673
1338876152734,0.936778
1338876212734,0.941468
1338876272734,0.930831
1338876332734,0.933482
1338876392734,0.938157
1338876452734,0.932257
1338876512734,0.933743
1338876572734,0.929810
1338876632734,0.932666
1338876692734,0.934479
1338876752734,0.930434
1338876812734,0.926225
1338876872734,0.938822
1338876932734,0.936047
1338876992734,0.930144
1338877052734,0.924175
1338877112734,0.924026
1338877172734,0.939987
1338877232734,0.932637
1338877292734,0.936550
1338877352734,0.935754
1338877412734,0.929657
1338877472734,0.928482
1338877532734,0.936561
1338877592734,0.933741
1338877652734,0.943290
1338877712734,0.932137
1338877772734,0.940185
1338877832734,0.930792
1338877892734,0.935391
1338877952734,0.934175
1338878012734,0.937652
1338878072734,0.933458
1338878132734,0.933953
1338878192734,0.934244
1338878252734,0.929926
1338878312734,0.933219
1338878372734,0.930188
1338878432734,0.935719
1338878492734,0.935190
1338878552734,0.930752
1338878612734,0.933459
1338878672734,0.932241
1338878732734,0.934557
1338878792734,0.938131
1338878852734,0.935396
1338878912734,0.939421
1338878972734,0.939878
1338879032734,0.933668
1338879092734,0.937859
1338879152734,0.935972
1338879212734,0.935111
1338879272734,0.939910
1338879332734,0.928184
1338879392734,0.930445
1338879452734,0.934565
1338879512734,0.935864
1338879572734,0.937421
1338879632743,0.934481
1338879692743,0.940778
1338879752743,0.940389
1338879812743,0.939675
1338879872743,0.933653
1338879932743,0.938048
1338879992743,0.940426
1338880052743,0.937982
1338880112743,0.934436
1338880172743,0.933829
1338880232743,0.938700
1338880292743,0.936063
1338880352743,0.931748
1338880412743,0.932749
1338880472743,0.933089
1338880532743,0.927410
1338880592743,0.936946
1338880652743,0.933449
1338880712743,0.935615
1338880772743,0.920532
1338880832743,0.928376
1338880892743,0.932769
1338880952743,0.922495
1338881012743,0.929090
1338881072743,0.930869
1338881132743,0.931290
1338881192743,0.932136
1338881252743,0.925828
1338881312743,0.930594
1338881372743,0.928663
1338881432743,0.919114
1338881492743,0.930511
1338881552743,0.931216
1338881612743,0.928097
1338881672743,0.936381
1338881732743,0.930875
1338881792743,0.930452
1338881852743,0.928307
1338881912743,0.937276
1338881972743,0.937425
1338882032743,0.924052
1338882092743,0.932646
1338882152743,0.930006
1338882212743,0.937095
1338882272743,0.927565
1338882332743,0.928344
1338882392743,0.932689
1338882452743,0.937361
1338882512743,0.933731
1338882572743,0.935259
1338882632743,0.939786
1338882692743,0.944579
1338882752743,0.954250
1338882812743,0.967355
1338882872743,0.962403
1338882932743,0.968308
1338882992743,0.969640
1338883052743,0.971189
1338883112743,0.968752
1338883172743,0.980890
1338883232753,0.968573
1338883292753,0.972500
1338883352753,0.981009
1338883412753,0.978811
1338883472753,0.966157
1338883532753,0.972987
1338883592753,0.960839
1338883652753,0.963277
1338883712753,0.971088
1338883772753,0.963487
1338883832753,0.953635
1338883892753,0.966166
1338883952753,0.950316
1338884012753,0.950387
1338884072753,0.955312
1338884132753,0.948351
1338884192753,0.952653
1338884252753,0.942406
1338884312753,0.933518
1338884372753,0.939576
1338884432753,0.933911
1338884492753,0.936156
1338884552753,0.933968
1338884612753,0.930609
1338884672753,0.936777
1338884732753,0.934336
1338884792753,0.927753
1338884852753,0.931092
1338884912753,0.930802
1338884972753,0.929390
1338885032753,0.925537
1338885092753,0.920256
1338885152753,0.926419
1338885212753,0.927045
1338885272753,0.930104
1338885332753,0.930819
1338885392753,0.930512
1338885452753,0.934237
1338885512753,0.924818
1338885572753,0.934090
1338885632753,0.924945
1338885692753,0.928389
1338885752753,0.925370
1338885812753,0.922292
1338885872753,0.930743
1338885932753,0.929621
1338885992753,0.925740
1338886052753,0.922915
1338886112753,0.927661
1338886172753,0.924062
1338886232753,0.932480
1338886292753,0.923393
1338886352753,0.927074
1338886412753,0.923209
1338886472753,0.929275
1338886532753,0.929474
1338886592753,0.923148
1338886652753,0.923630
1338886712753,0.933380
1338886772753,0.925924
1338886832762,0.919887
1338886892762,0.919140
1338886952762,0.924239
1338887012762,0.931770
1338887072762,0.930101
1338887132762,0.930327
1338887192762,0.926483
1338887252762,0.925281
1338887312762,0.925333
1338887372762,0.933935
1338887432762,0.923656
1338887492762,0.923316
1338887552762,0.922764
1338887612762,0.929657
1338887672762,0.919751
1338887732762,0.923834
1338887792762,0.920877
1338887852762,0.923754
1338887912762,0.924017
1338887972762,0.913864
1338888032762,0.923169
1338888092762,0.929227
1338888152762,0.921658
1338888212762,0.913153
1338888272762,0.919942
1338888332762,0.931407
1338888392762,0.919505
1338888452762,0.923744
1338888512762,0.921347
1338888572762,0.924220
1338888632762,0.923267
1338888692762,0.933061
1338888752762,0.925401
1338888812762,0.921420
1338888872762,0.928669
1338888932762,0.924922
1338888992762,0.920122
1338889052762,0.931354
1338889112762,0.926520
1338889172762,0.926607
1338889232762,0.920434
1338889292762,0.931725
1338889352762,0.920554
1338889412762,0.925909
1338889472762,0.915886
1338889532762,0.921348
1338889592762,0.927692
1338889652762,0.922168
1338889712762,0.929527
1338889772762,0.925271
1338889832762,0.921275
1338889892762,0.920208
1338889952762,0.927031
1338890012762,0.924390
1338890072762,0.927588
1338890132762,0.919059
1338890192762,0.930190
1338890252762,0.927563
1338890312762,0.932244
1338890372762,0.931501
1338890432772,0.929691
1338890492772,0.932563
1338890552772,0.931452
1338890612772,0.941711
1338890672772,0.929587
1338890732772,0.933278
1338890792772,0.936069
1338890852772,0.933563
1338890912772,0.934735
1338890972772,0.932144
1338891032772,0.929757
1338891092772,0.939280
1338891152772,0.928210
1338891212772,0.928748
1338891272772,0.933327
1338891332772,0.930157
1338891392772,0.922604
1338891452772,0.931623
1338891512772,0.931476
1338891572772,0.934608
1338891632772,0.929550
1338891692772,0.931514
1338891752772,0.928334
1338891812772,0.935348
1338891872772,0.934685
1338891932772,0.927978
1338891992772,0.929054
1338892052772,0.933953
1338892112772,0.934735
1338892172772,0.932669
1338892232772,0.930970
1338892292772,0.928813
1338892352772,0.934771
1338892412772,0.932634
1338892472772,0.935822
1338892532772,0.920506
1338892592772,0.933617
1338892652772,0.929139
1338892712772,0.935525
1338892772772,0.931297
1338892832772,0.925924
1338892892772,0.932676
1338892952772,0.932276
1338893012772,0.930900
1338893072772,0.941388
1338893132772,0.925793
1338893192772,0.927855
1338893252772,0.920419
1338893312772,0.933093
1338893372772,0.926641
1338893432772,0.923406
1338893492772,0.933522
1338893552772,0.939155
1338893612772,0.929383
1338893672772,0.925484
1338893732772,0.932769
1338893792772,0.929004
1338893852772,0.931574
1338893912772,0.924434
1338893972772,0.919701
1338894032781,0.930503
1338894092781,0.924594
1338894152781,0.937189
1338894212781,0.931098
1338894272781,0.927294
1338894332781,0.928667
1338894392781,0.931371
1338894452781,0.930371
1338894512781,0.930270
1338894572781,0.929783
1338894632781,0.926579
1338894692781,0.922267
1338894752781,0.933702
1338894812781,0.932442
1338894872781,0.924625
1338894932781,0.922895
1338894992781,0.927104
1338895052781,0.929286
1338895112781,0.934007
1338895172781,0.932096
1338895232781,0.930105
1338895292781,0.932552
1338895352781,0.922264
1338895412781,0.926204
1338895472781,0.933296
1338895532781,0.923464
1338895592781,0.928637
1338895652781,0.937364
1338895712781,0.933167
1338895772781,0.927738
1338895832781,0.923557
1338895892781,0.933881
1338895952781,0.929610
1338896012781,0.929496
1338896072781,0.936802
1338896132781,0.929449
1338896192781,0.926488
1338896252781,0.928916
1338896312781,0.933491
1338896372781,0.936036
1338896432781,0.935356
1338896492781,0.937036
1338896552781,0.939687
1338896612781,0.931444
1338896672781,0.934637
1338896732781,0.940646
1338896792781,0.929958
1338896852781,0.929305
1338896912781,0.928078
1338896972781,0.936333
1338897032781,0.934739
1338897092781,0.931779
1338897152781,0.939391
1338897212781,0.944396
1338897272781,0.931824
1338897332781,0.940404
1338897392781,0.947455
1338897452781,0.967563
1338897512781,0.976564
1338897572781,0.950068
1338897632791,0.950400
1338897692791,0.956657
1338897752791,0.945822
1338897812791,0.945343
1338897872791,0.943628
1338897932791,0.955719
1338897992791,0.950612
1338898052791,0.948541
1338898112791,0.947647
1338898172791,0.948067
1338898232791,0.946454
1338898292791,0.958390
1338898352791,0.945294
1338898412791,0.954019
1338898472791,0.942938
1338898532791,0.956245
1338898592791,0.949566
1338898652791,0.959242
1338898712791,0.956270
1338898772791,0.949590
1338898832791,0.953417
1338898892791,0.943607
1338898952791,0.955051
1338899012791,0.950364
1338899072791,0.957764
1338899132791,0.954119
1338899192791,0.950720
1338899252791,0.955465
1338899312791,0.952046
1338899372791,0.955322
1338899432791,0.944219
1338899492791,0.948220
1338899552791,0.949392
1338899612791,0.952276
1338899672791,0.949852
1338899732791,0.947672
1338899792791,0.939721
1338899852791,0.945708
1338899912791,0.943917
1338899972791,0.950023
1338900032791,0.947203
1338900092791,0.947672
1338900152791,0.948371
1338900212791,0.940386
1338900272791,0.938934
1338900332791,0.936939
1338900392791,0.937483
1338900452791,0.940917
1338900512791,0.941398
1338900572791,0.936571
1338900632791,0.939987
1338900692791,0.938605
1338900752791,0.942275
1338900812791,0.937099
1338900872791,0.942406
1338900932791,0.947114
1338900992791,0.943017
1338901052791,0.951728
1338901112791,0.948853
1338901172791,0.953815
1338901232800,0.943920
1338901292800,0.953826
1338901352800,0.950181
1338901412800,0.951164
1338901472800,0.955380
1338901532800,0.950588
1338901592800,0.949109
1338901652800,0.947464
1338901712800,0.950090
1338901772800,0.949846
1338901832800,0.943523
1338901892800,0.947438
1338901952800,0.943259
1338902012800,0.941531
1338902072800,0.945455
1338902132800,0.940152
1338902192800,0.949392
1338902252800,0.947536
1338902312800,0.935492
1338902372800,0.942567
1338902432800,0.946696
1338902492800,0.946182
1338902552800,0.932495
1338902612800,0.941091
1338902672800,0.946769
1338902732800,0.937546
1338902792800,0.947822
1338902852800,0.944221
1338902912800,0.942931
1338902972800,0.936693
1338903032800,0.945158
1338903092800,0.927081
1338903152800,0.942987
1338903212800,0.941360
1338903272800,0.940256
1338903332800,0.944435
1338903392800,0.933276
1338903452800,0.939495
1338903512800,0.938258
1338903572800,0.936956
1338903632800,0.937995
1338903692800,0.938244
1338903752800,0.939874
1338903812800,0.940507
1338903872800,0.931420
1338903932800,0.929525
1338903992800,0.937057
1338904052800,0.936233
1338904112800,0.932783
1338904172800,0.939587
1338904232800,0.939828
1338904292800,0.939801
1338904352800,0.935656
1338904412800,0.931991
1338904472800,0.941985
1338904532800,0.942646
1338904592800,0.943352
1338904652800,0.947920
1338904712800,0.938168
1338904772800,0.941569
1338904832810,0.936724
1338904892810,0.935839
1338904952810,0.931200
1338905012810,0.930528
1338905072810,0.940370
1338905132809,0.931135
1338905192809,0.940884
1338905252810,0.937223
1338905312810,0.929917
1338905372810,0.934837
1338905432810,0.934714
1338905492810,0.937795
1338905552810,0.936299
1338905612810,0.941884
1338905672810,0.937426
1338905732810,0.937189
1338905792810,0.934348
1338905852810,0.938978
1338905912810,0.949710
1338905972810,0.939542
1338906032810,0.940450
1338906092810,0.942296
1338906152810,0.944493
1338906212810,0.956374
1338906272810,0.960240
1338906332810,0.952349
1338906392810,0.959855
1338906452809,0.955360
1338906512809,0.956793
1338906572809,0.956670
1338906632810,0.945590
1338906692810,0.950722
1338906752810,0.951783
1338906812810,0.947695
1338906872810,0.964347
1338906932810,0.963069
1338906992810,0.962554
1338907052810,0.963525
1338907112810,0.962026
1338907172810,0.965569
1338907232810,0.968071
1338907292810,0.963020
1338907352810,0.952383
1338907412810,0.958872
1338907472810,0.956476
1338907532810,0.953882
1338907592810,0.954992
1338907652810,0.960116
1338907712810,0.961864
1338907772810,0.948974
1338907832809,0.958687
1338907892809,0.957746
1338907952810,0.961855
1338908012810,0.957437
1338908072810,0.964992
1338908132810,0.958722
1338908192810,0.953503
1338908252810,0.962764
1338908312810,0.958156
1338908372810,0.950019
1338908432819,0.963708
1338908492819,0.965008
1338908552819,0.956873
1338908612819,0.960060
1338908672819,0.961999
1338908732819,0.953404
1338908792819,0.957622
1338908852819,0.948156
1338908912819,0.961353
1338908972819,0.952397
1338909032819,0.957277
1338909092819,0.954244
1338909632819,0.970134
1338909692819,0.967397
1338909752819,0.971373
1338909812819,0.966173
1338909872819,0.962751
1338909932819,0.958115
1338909992819,0.959554
1338910052819,0.969310
1338910112819,0.969306
1338910172819,0.963954
1338910232819,0.956980
1338910292819,0.955465
1338910352819,0.954166
1338910412819,0.955152
1338910472819,0.958028
1338910532819,0.956041
1338910592819,0.960368
1338910652819,0.962508
1338910712819,0.957486
1338910772819,0.947602
1338910832819,0.952739
1338910892819,0.945265
1338910952819,0.953901
1338911012819,0.950536
1338911072819,0.952753
1338911132819,0.946621
1338911192819,0.951307
1338911252819,0.941797
1338911312819,0.952582
1338911372819,0.939787
1338911432819,0.945388
1338911492819,0.955742
1338911552819,0.948929
1338911612819,0.940061
1338911672819,0.936800
1338911732819,0.951462
1338911792819,0.944243
1338911852819,0.943467
1338911912819,0.941973
1338911972819,0.938837
1338912032829,0.947554
1338912092829,0.941853
1338912152829,0.944131
1338912212829,0.938732
1338912272829,0.944882
1338912332829,0.941818
1338912392829,0.936492
1338912452829,0.941962
1338912512829,0.935227
1338912572829,0.944293
1338912632829,0.934494
1338912692829,0.941594
1338912752829,0.937448
1338912812829,0.934759
1338912872829,0.940356
1338912932829,0.936746
1338912992829,0.936032
1338913052829,0.938975
1338913112829,0.946443
1338913172829,0.939327
1338913232829,0.938527
1338913292829,0.949798
1338913352829,0.937140
1338913412829,0.951325
1338913472829,0.945312
1338913532829,0.939977
1338913592829,0.939233
1338913652829,0.939119
1338913712829,0.940238
1338913772829,0.941000
1338913832829,0.937965
1338913892829,0.943979
1338913952829,0.940643
1338914012829,0.943521
1338914072829,0.943996
1338914132829,0.944284
1338914192829,0.946632
1338914252829,0.944934
1338914312829,0.933618
1338914372829,0.933953
1338914432829,0.938541
1338914492829,0.939775
1338914552829,0.940343
1338914612829,0.937772
1338914672829,0.937101
1338914732829,0.937334
1338914792829,0.934778
1338914852829,0.943353
1338914912829,0.944638
1338914972829,0.940317
1338915032829,0.942685
1338915092829,0.943096
1338915152829,0.945373
1338915212829,0.943862
1338915272829,0.939341
1338915332829,0.942839
1338915392829,0.950909
1338915452829,0.947144
1338915512829,0.943174
1338915572829,0.949782
1338915632839,0.941961
1338915692839,0.954920
1338915752839,0.953551
1338915812839,0.951264
1338915872839,0.948009
1338915932839,0.948668
1338915992839,0.946242
1338916052839,0.944892
1338916112839,0.942438
1338916172839,0.956486
1338916232839,0.940966
1338916292839,0.952273
1338916352839,0.941869
1338916412839,0.954937
1338916472839,0.947851
1338916532839,0.946486
1338916592839,0.943349
1338916652839,0.951632
1338916712838,0.941167
1338916772838,0.944684
1338916832839,0.950344
1338916892839,0.941917
1338916952839,0.948719
1338917012839,0.941710
1338917072839,0.941887
1338917132839,0.949469
1338917192839,0.940870
1338917252839,0.945229
1338917312839,0.945781
1338917372839,0.942998
1338917432839,0.951854